TimeEDT,TemperatureF,Dew PointF,Humidity,Sea Level PressureIn,VisibilityMPH,Wind Direction,Wind SpeedMPH,Gust SpeedMPH,PrecipitationIn,Events,Conditions,WindDirDegrees,DateUTC
12:56 AM,75.9,73.0,91,30.17,9.0,South,3.5,-,N/A,,Clear,190,2013-07-30 04:56:00
1:56 AM,75.0,73.0,94,30.17,7.0,Calm,Calm,-,N/A,,Clear,0,2013-07-30 05:56:00
2:56 AM,73.9,72.0,93,30.15,6.0,SSW,3.5,-,N/A,,Clear,200,2013-07-30 06:56:00
3:56 AM,75.0,73.0,94,30.15,7.0,Calm,Calm,-,N/A,,Overcast,0,2013-07-30 07:56:00
4:53 AM,77.0,73.4,89,30.14,8.0,NW,3.5,-,0.00,,Mostly Cloudy,310,2013-07-30 08:53:00
4:56 AM,77.0,73.9,90,30.16,8.0,NW,5.8,-,0.00,,Mostly Cloudy,310,2013-07-30 08:56:00
5:56 AM,75.9,73.9,94,30.16,7.0,WNW,4.6,-,N/A,,Overcast,300,2013-07-30 09:56:00
6:48 AM,77.0,73.4,89,30.16,6.0,North,3.5,-,N/A,,Scattered Clouds,10,2013-07-30 10:48:00
6:56 AM,77.0,73.9,90,30.17,5.0,Calm,Calm,-,N/A,,Partly Cloudy,0,2013-07-30 10:56:00
7:56 AM,79.0,75.0,88,30.19,5.0,Calm,Calm,-,N/A,,Mostly Cloudy,0,2013-07-30 11:56:00
8:09 AM,78.8,75.2,89,30.19,5.0,SE,9.2,-,N/A,,Mostly Cloudy,140,2013-07-30 12:09:00
8:34 AM,78.8,73.4,83,30.19,10.0,East,10.4,-,N/A,,Overcast,90,2013-07-30 12:34:00
8:56 AM,78.1,73.0,84,30.21,2.5,East,10.4,-,0.06,Rain,Heavy Rain,90,2013-07-30 12:56:00
9:09 AM,78.8,71.6,78,30.19,4.0,East,10.4,-,0.02,Rain,Light Rain,80,2013-07-30 13:09:00
9:23 AM,78.8,73.4,83,30.19,2.5,East,9.2,-,0.05,Rain,Light Rain,80,2013-07-30 13:23:00
9:56 AM,79.0,73.9,84,30.21,10.0,ENE,11.5,-,0.06,,Overcast,70,2013-07-30 13:56:00
10:56 AM,82.0,71.1,69,30.22,10.0,ENE,12.7,-,N/A,,Mostly Cloudy,70,2013-07-30 14:56:00
11:56 AM,82.9,70.0,65,30.21,10.0,ENE,9.2,-,N/A,,Mostly Cloudy,70,2013-07-30 15:56:00
12:09 PM,82.4,69.8,66,30.19,10.0,ENE,10.4,-,N/A,,Mostly Cloudy,70,2013-07-30 16:09:00
12:16 PM,82.4,69.8,66,30.19,10.0,ENE,10.4,-,N/A,,Mostly Cloudy,60,2013-07-30 16:16:00
12:27 PM,84.2,69.8,62,30.18,10.0,ENE,11.5,-,N/A,,Scattered Clouds,60,2013-07-30 16:27:00
12:56 PM,82.9,70.0,65,30.19,10.0,ENE,11.5,-,N/A,,Partly Cloudy,60,2013-07-30 16:56:00
1:56 PM,82.9,70.0,65,30.19,10.0,East,9.2,-,N/A,,Overcast,80,2013-07-30 17:56:00
2:56 PM,82.9,71.1,67,30.17,10.0,ENE,6.9,-,N/A,,Overcast,60,2013-07-30 18:56:00
3:56 PM,82.9,71.1,67,30.16,10.0,ENE,8.1,-,N/A,,Overcast,70,2013-07-30 19:56:00
4:56 PM,82.0,71.1,69,30.16,10.0,East,5.8,-,N/A,,Overcast,80,2013-07-30 20:56:00
5:38 PM,82.4,71.6,70,30.14,10.0,East,9.2,-,N/A,,Overcast,80,2013-07-30 21:38:00
5:56 PM,82.0,71.1,69,30.15,10.0,East,8.1,-,N/A,,Overcast,90,2013-07-30 21:56:00
6:03 PM,82.4,71.6,70,30.14,10.0,East,9.2,-,N/A,,Overcast,90,2013-07-30 22:03:00
6:56 PM,82.0,71.1,69,30.16,10.0,ENE,6.9,-,N/A,,Overcast,60,2013-07-30 22:56:00
7:56 PM,80.1,72.0,76,30.17,10.0,East,8.1,-,N/A,,Mostly Cloudy,80,2013-07-30 23:56:00
8:56 PM,80.1,71.1,74,30.16,10.0,ENE,9.2,-,N/A,,Scattered Clouds,70,2013-07-31 00:56:00
9:56 PM,80.1,72.0,76,30.17,10.0,East,10.4,-,N/A,,Clear,80,2013-07-31 01:56:00
10:56 PM,75.9,73.0,91,30.16,10.0,East,9.2,-,N/A,,Overcast,90,2013-07-31 02:56:00
11:56 PM,75.9,73.0,91,30.16,10.0,East,6.9,-,N/A,,Scattered Clouds,90,2013-07-31 03:56:00